Des Moines, IA

1:34 PM CDT on July 25, 2016 (GMT -0500)
Des Moines International

Weather History for KDSM - October, 2012

Change the Weather History Date:

Tuesday, October 16, 2012

  Actual Average Record
Temperature  
Mean Temperature 65 °F 53 °F  
Max Temperature 77 °F 63 °F 87 °F (1950)
Min Temperature 52 °F 43 °F 26 °F (1943)
Degree Days  
Heating Degree Days 0 12  
Month to date heating degree days 172 157  
Since 1 July heating degree days 241 257  
Cooling Degree Days 0 0  
Month to date cooling degree days 2 11  
Year to date cooling degree days 1601 1063  
Growing Degree Days 15 (Base 50)    
Moisture  
Dew Point 47 °F    
Average Humidity 54    
Maximum Humidity 72    
Minimum Humidity 36    
Precipitation  
Precipitation 0.00 in 0.08 in 1.86 in (1879)
Month to date precipitation 2.37 1.35  
Year to date precipitation 22.06 31.12  
Snow  
Snow 0.00 in 0.00 in T in (1992)
Month to date snowfall 0.0 0.1  
Since 1 July snowfall 0.0 0.1  
Since 1 September snowfall 0.0 0.1  
Snow Depth 0.00 in    
Sea Level Pressure  
Sea Level Pressure 29.56 in    
Wind  
Wind Speed 11 mph (South)    
Max Wind Speed 21 mph    
Max Gust Speed 25 mph    
Visibility 10 miles    
Events      
T = Trace of Precipitation, MM = Missing Value Source: NWS Daily Summary

Daily Weather History Graph

Daily Weather History Graph

Search for Another Location

Airport or City:

Trip Planner

Search our weather history database for the weather conditions in past years. The results will help you decide how hot, cold, wet, or windy it might be!

Date:

Astronomy

Oct. 16, 2012 Rise Set
Actual Time 7:28 AM CDT 6:31 PM CDT
Civil Twilight 7:00 AM CDT 6:59 PM CDT
Nautical Twilight 6:28 AM CDT 7:31 PM CDT
Astronomical Twilight 5:56 AM CDT 8:03 PM CDT
Moon 8:53 AM CDT (10/16) 7:14 PM CDT (10/16)
Length of Visible Light 11h 58m
Length of Day
11h 02m
New Moon, 2% of the Moon is Illuminated
Oct 16
New Moon
Oct 21
First Quarter
Oct 29
Full
Nov 6
Last Quarter
Nov 13
New

Hourly Weather History & Observations

Time (CDT) Temp. Dew Point Humidity Pressure Visibility Wind Dir Wind Speed Gust Speed Precip Events Conditions
12:54 AM 54.0 °F 43.0 °F 66% 29.82 in 10.0 mi SSE 8.1 mph - N/A   Clear
1:54 AM 54.0 °F 43.0 °F 66% 29.79 in 10.0 mi SSE 9.2 mph - N/A   Clear
2:54 AM 55.0 °F 43.0 °F 64% 29.75 in 10.0 mi SSE 12.7 mph - N/A   Clear
3:54 AM 54.0 °F 43.0 °F 66% 29.70 in 10.0 mi SE 10.4 mph - N/A   Clear
4:54 AM 55.0 °F 44.1 °F 67% 29.67 in 10.0 mi SE 12.7 mph - N/A   Clear
5:54 AM 54.0 °F 44.1 °F 69% 29.66 in 10.0 mi SSE 11.5 mph - N/A   Clear
6:54 AM 53.6 °F 44.6 °F 72% 29.64 in 10.0 mi SE 8.1 mph - N/A   Partly Cloudy
7:54 AM 53.1 °F 45.0 °F 74% 29.61 in 10.0 mi SE 9.2 mph - N/A   Partly Cloudy
8:54 AM 55.0 °F 46.9 °F 74% 29.60 in 10.0 mi South 4.6 mph - N/A   Scattered Clouds
9:54 AM 62.1 °F 48.9 °F 62% 29.57 in 10.0 mi SSW 6.9 mph - N/A   Mostly Cloudy
10:54 AM 66.0 °F 48.9 °F 54% 29.54 in 10.0 mi SSW 12.7 mph 20.7 mph N/A   Mostly Cloudy
11:54 AM 71.1 °F 50.0 °F 47% 29.51 in 10.0 mi SSW 11.5 mph - N/A   Scattered Clouds
12:54 PM 75.0 °F 51.1 °F 43% 29.49 in 10.0 mi WSW 16.1 mph - N/A   Scattered Clouds
1:54 PM 75.9 °F 50.0 °F 40% 29.47 in 10.0 mi SW 15.0 mph - N/A   Scattered Clouds
2:54 PM 77.0 °F 48.9 °F 37% 29.45 in 10.0 mi WSW 18.4 mph 25.3 mph N/A   Scattered Clouds
3:54 PM 75.9 °F 48.9 °F 38% 29.44 in 10.0 mi SW 18.4 mph - N/A   Partly Cloudy
4:54 PM 75.0 °F 48.9 °F 40% 29.44 in 10.0 mi SW 13.8 mph - N/A   Clear
5:54 PM 72.0 °F 50.0 °F 46% 29.44 in 10.0 mi SW 11.5 mph - N/A   Clear
6:54 PM 68.0 °F 48.9 °F 50% 29.44 in 10.0 mi SSW 6.9 mph - N/A   Partly Cloudy
7:54 PM 66.0 °F 48.0 °F 52% 29.46 in 10.0 mi SSW 9.2 mph - N/A   Clear
8:54 PM 64.9 °F 48.0 °F 54% 29.45 in 10.0 mi SSW 9.2 mph - N/A   Clear
9:54 PM 63.0 °F 46.9 °F 56% 29.45 in 10.0 mi SSW 8.1 mph - N/A   Scattered Clouds
10:54 PM 59.0 °F 46.9 °F 64% 29.44 in 10.0 mi South 5.8 mph - N/A   Mostly Cloudy
11:54 PM 60.1 °F 46.9 °F 62% 29.44 in 10.0 mi South 11.5 mph - N/A   Mostly Cloudy